Main page
METAR-TAF:

METAR-TAF

Airports :

Bandar Kangan, Iran

Jam Airport

latitude: 27-49-14N, longitude: 52-21-08E, elevation: 662 m

Current weather observation

The report was made 5 hours and 35 minutes ago, at 15:00 UTC
Wind 6 kt from the South/Southwest
Temperature 16°C
Humidity 72%
Pressure 1023 hPa
Visibility 10 km or more
no clouds below 1500 m and no cumulonimbus

METAR: OIBJ 181500Z 21006KT CAVOK 16/11 Q1023

Time: 00:05 (20:35 UTC)


TAF: missing

Weather observations and forecasts of more than 4000 airports (METAR and TAF reports).

The available stations are represented by yellow and red dots on the map.

Hover mouse over dot to see the name of the station.

Then click to see weather observations and forecasts.

To change the map : click on the green buttons with a black cross to zoom in, on the green button with a dash to zoom out, or on the green arrows for adjacent maps.


METAR-TAF: